Alva, OK

8:31 AM CDT on October 01, 2016 (GMT -0500)
Alva Regional

Weather History for KAVK - April, 2013

Change the Weather History Date:

Friday, April 26, 2013

  Actual Average Record
Temperature  
Mean Temperature 55 °F -  
Max Temperature 60 °F 74 °F 97 °F (1989)
Min Temperature 50 °F 49 °F 35 °F (1950)
Degree Days  
Heating Degree Days 10    
Growing Degree Days 5 (Base 50)    
Moisture  
Dew Point 48 °F    
Average Humidity 81    
Maximum Humidity 100    
Minimum Humidity 48    
Precipitation  
Precipitation 0.18 in - - ()
Sea Level Pressure  
Sea Level Pressure 30.06 in    
Wind  
Wind Speed 12 mph (ESE)    
Max Wind Speed 20 mph    
Max Gust Speed 26 mph    
Visibility 7 miles    
Events Fog , Rain , Thunderstorm    
Averages and records for this station are not official NWS values.
T = Trace of Precipitation, MM = Missing Value Source: NWS Daily Summary

Daily Weather History Graph

Daily Weather History Graph

Search for Another Location

Airport or City:

Trip Planner

Search our weather history database for the weather conditions in past years. The results will help you decide how hot, cold, wet, or windy it might be!

Date:

Astronomy

Apr. 26, 2013 Rise Set
Actual Time 6:46 AM CDT 8:19 PM CDT
Civil Twilight 6:18 AM CDT 8:46 PM CDT
Nautical Twilight 5:45 AM CDT 9:19 PM CDT
Astronomical Twilight 5:11 AM CDT 9:54 PM CDT
Moon 9:41 PM CDT (4/26) 7:16 AM CDT (4/26)
Length of Visible Light 14h 27m
Length of Day
13h 32m
Full, 99% of the Moon is Illuminated
Apr 26
Full
May 2
Last Quarter
May 9
New
May 17
First Quarter
May 24
Full

Hourly Weather History & Observations

Time (CDT) Temp. Dew Point Humidity Pressure Visibility Wind Dir Wind Speed Gust Speed Precip Events Conditions
12:00 AM 57.2 °F 37.4 °F 48% 30.08 in 10.0 mi South 15.0 mph 20.7 mph N/A   Scattered Clouds
12:20 AM 57.2 °F 37.4 °F 48% 30.11 in 10.0 mi South 13.8 mph 17.3 mph N/A   Mostly Cloudy
12:40 AM 57.2 °F 37.4 °F 48% 30.10 in 10.0 mi South 12.7 mph - N/A   Mostly Cloudy
1:00 AM 55.4 °F 39.2 °F 54% 30.12 in 10.0 mi South 11.5 mph - N/A   Overcast
1:20 AM 55.4 °F 39.2 °F 54% 30.12 in 10.0 mi South 9.2 mph - N/A   Overcast
1:40 AM 55.4 °F 41.0 °F 58% 30.11 in 10.0 mi SSE 10.4 mph - N/A   Overcast
2:00 AM 55.4 °F 41.0 °F 58% 30.10 in 10.0 mi SE 8.1 mph - N/A   Overcast
2:20 AM 53.6 °F 41.0 °F 62% 30.09 in 10.0 mi SSE 11.5 mph - N/A   Overcast
2:40 AM 53.6 °F 41.0 °F 62% 30.06 in 10.0 mi SSE 15.0 mph - N/A   Mostly Cloudy
3:00 AM 51.8 °F 41.0 °F 67% 30.06 in 10.0 mi SSE 11.5 mph - N/A   Scattered Clouds
3:20 AM 51.8 °F 41.0 °F 67% 30.05 in 10.0 mi SSE 10.4 mph - N/A   Mostly Cloudy
3:40 AM 51.8 °F 41.0 °F 67% 30.05 in 10.0 mi SSE 6.9 mph - N/A   Mostly Cloudy
4:00 AM 51.8 °F 41.0 °F 67% 30.06 in 10.0 mi South 5.8 mph - N/A   Mostly Cloudy
4:20 AM 53.6 °F 41.0 °F 62% 30.06 in 10.0 mi SSE 6.9 mph - N/A   Overcast
4:40 AM 53.6 °F 42.8 °F 67% 30.05 in 10.0 mi South 10.4 mph - N/A   Overcast
5:00 AM 53.6 °F 42.8 °F 67% 30.05 in 10.0 mi South 9.2 mph - N/A   Overcast
5:20 AM 53.6 °F 42.8 °F 67% 30.05 in 10.0 mi South 11.5 mph - N/A Thunderstorm Thunderstorm
5:40 AM 53.6 °F 44.6 °F 72% 30.04 in 10.0 mi South 12.7 mph - N/A   Overcast
6:00 AM 53.6 °F 44.6 °F 72% 30.04 in 10.0 mi South 13.8 mph - N/A Thunderstorm Overcast
6:20 AM 51.8 °F 48.2 °F 88% 30.04 in 9.0 mi South 11.5 mph - N/A Rain , Thunderstorm Light Rain
6:40 AM 50.0 °F 48.2 °F 94% 30.04 in 10.0 mi South 8.1 mph - N/A Rain Light Rain
7:00 AM 51.8 °F 48.2 °F 88% 30.04 in 10.0 mi South 6.9 mph - N/A   Overcast
7:20 AM 53.6 °F 48.2 °F 82% 30.03 in 10.0 mi South 11.5 mph - N/A   Overcast
7:40 AM 53.6 °F 48.2 °F 82% 30.03 in 10.0 mi South 17.3 mph 21.9 mph N/A   Mostly Cloudy
8:00 AM 55.4 °F 46.4 °F 72% 30.04 in 10.0 mi South 13.8 mph - N/A   Mostly Cloudy
8:20 AM 55.4 °F 46.4 °F 72% 30.04 in 10.0 mi SSE 16.1 mph - N/A   Overcast
8:40 AM 55.4 °F 46.4 °F 72% 30.03 in 10.0 mi South 18.4 mph 26.5 mph N/A   Overcast
9:00 AM 57.2 °F 46.4 °F 67% 30.03 in 10.0 mi South 19.6 mph 23.0 mph N/A   Overcast
9:20 AM 57.2 °F 48.2 °F 72% 30.03 in 10.0 mi South 13.8 mph - N/A   Overcast
9:40 AM 59.0 °F 48.2 °F 67% 30.03 in 10.0 mi South 13.8 mph - N/A   Overcast
10:00 AM 59.0 °F 46.4 °F 63% 30.03 in 10.0 mi South 16.1 mph - N/A   Overcast
10:20 AM 59.0 °F 48.2 °F 67% 30.03 in 10.0 mi South 15.0 mph - N/A   Overcast
10:40 AM 57.2 °F 48.2 °F 72% 30.04 in 10.0 mi South 8.1 mph - N/A   Overcast
11:05 AM 59.0 °F 50.0 °F 72% 30.05 in 10.0 mi SE 8.1 mph - N/A   Overcast
11:20 AM 59.0 °F 50.0 °F 72% 30.05 in 10.0 mi SE 9.2 mph - N/A   Overcast
11:40 AM 60.8 °F 50.0 °F 68% 30.05 in 10.0 mi SE 10.4 mph - N/A   Overcast
12:00 PM 60.8 °F 50.0 °F 68% 30.05 in 10.0 mi East 10.4 mph - N/A   Overcast
12:20 PM 60.8 °F 53.6 °F 77% 30.05 in 10.0 mi East 10.4 mph - N/A   Overcast
12:40 PM 59.0 °F 51.8 °F 77% 30.05 in 10.0 mi East 8.1 mph - N/A   Overcast
1:00 PM 59.0 °F 53.6 °F 82% 30.04 in 10.0 mi East 10.4 mph - N/A   Overcast
1:20 PM 57.2 °F 53.6 °F 88% 30.04 in 10.0 mi East 10.4 mph - N/A   Overcast
1:45 PM 57.2 °F 53.6 °F 88% 30.04 in 7.0 mi East 12.7 mph - N/A   Overcast
2:00 PM 55.4 °F 53.6 °F 94% 30.05 in 2.0 mi ENE 12.7 mph - N/A Rain Light Rain
2:20 PM 53.6 °F 53.6 °F 100% 30.05 in 1.5 mi East 13.8 mph 18.4 mph N/A Rain Light Rain
2:40 PM 53.6 °F 53.6 °F 100% 30.04 in 1.8 mi East 18.4 mph - N/A Rain Light Rain
3:00 PM 53.6 °F 53.6 °F 100% 30.04 in 2.5 mi East 19.6 mph 23.0 mph N/A Rain Light Rain
3:20 PM 55.4 °F 55.4 °F 100% 30.03 in 5.0 mi East 16.1 mph - N/A   Overcast
3:40 PM 53.6 °F 53.6 °F 100% 30.03 in 8.0 mi East 16.1 mph 20.7 mph N/A   Overcast
4:00 PM 53.6 °F 51.8 °F 94% 30.03 in 9.0 mi East 15.0 mph 20.7 mph N/A   Overcast
4:20 PM 53.6 °F 51.8 °F 94% 30.03 in 9.0 mi East 15.0 mph - N/A   Overcast
4:40 PM 53.6 °F 51.8 °F 94% 30.03 in 8.0 mi East 13.8 mph 20.7 mph N/A   Overcast
5:00 PM 55.4 °F 51.8 °F 88% 30.02 in 7.0 mi East 15.0 mph - N/A   Overcast
5:20 PM 53.6 °F 51.8 °F 94% 30.02 in 8.0 mi East 12.7 mph - N/A   Overcast
5:40 PM 53.6 °F 51.8 °F 94% 30.02 in 7.0 mi East 16.1 mph - N/A   Overcast
6:00 PM 53.6 °F 51.8 °F 94% 30.03 in 5.0 mi East 13.8 mph 20.7 mph N/A   Overcast
6:20 PM 51.8 °F 51.8 °F 100% 30.05 in 5.0 mi East 11.5 mph 19.6 mph N/A   Overcast
6:40 PM 51.8 °F 51.8 °F 100% 30.06 in 4.0 mi East 9.2 mph - N/A Rain Light Rain
7:00 PM 51.8 °F 51.8 °F 100% 30.06 in 3.0 mi ENE 11.5 mph - N/A Rain Light Rain
7:20 PM 51.8 °F 51.8 °F 100% 30.07 in 2.5 mi NNE 11.5 mph - 0.02 in Rain Light Rain
7:40 PM 51.8 °F 51.8 °F 100% 30.05 in 1.0 mi ENE 17.3 mph - 0.09 in Rain Rain
8:00 PM 50.0 °F 50.0 °F 100% 30.06 in 2.5 mi NE 16.1 mph - 0.09 in Rain Light Rain
8:20 PM 50.0 °F 50.0 °F 100% 30.05 in 3.0 mi NE 16.1 mph 20.7 mph N/A   Overcast
8:40 PM 50.0 °F 50.0 °F 100% 30.06 in 3.0 mi ENE 15.0 mph - N/A   Overcast
9:00 PM 50.0 °F 50.0 °F 100% 30.07 in 5.0 mi ENE 12.7 mph - N/A   Overcast
9:20 PM 50.0 °F 50.0 °F 100% 30.08 in 5.0 mi East 10.4 mph 17.3 mph N/A   Overcast
9:40 PM 50.0 °F 50.0 °F 100% 30.10 in 4.0 mi ENE 8.1 mph - N/A   Overcast
10:00 PM 50.0 °F 50.0 °F 100% 30.10 in 2.5 mi ENE 8.1 mph - N/A   Overcast
10:25 PM 50.0 °F 50.0 °F 100% 30.13 in 0.8 mi ENE 8.1 mph - N/A   Overcast
10:40 PM 50.0 °F 50.0 °F 100% 30.14 in 0.5 mi NE 6.9 mph - N/A Fog Fog
11:00 PM 50.0 °F 50.0 °F 100% 30.14 in 0.8 mi North 6.9 mph - N/A   Overcast
11:25 PM 50.0 °F 50.0 °F 100% 30.15 in 0.8 mi North 6.9 mph - N/A   Overcast
11:40 PM 50.0 °F 50.0 °F 100% 30.14 in 1.2 mi North 9.2 mph - N/A Rain Light Rain